Paganella, Italy

5:12 PM CET on February 06, 2016 (GMT +0100)
Paganella

Weather History for LIVP - April, 2013

Change the Weather History Date:

Friday, April 12, 2013

  Actual Average Record
Temperature  
Mean Temperature 30 °F -  
Max Temperature 32 °F 39 °F 46 °F (2007)
Min Temperature 28 °F 29 °F 17 °F (2006)
Degree Days  
Heating Degree Days 35    
Moisture  
Dew Point 30 °F    
Average Humidity 99    
Maximum Humidity 100    
Minimum Humidity 93    
Precipitation  
Precipitation 0.02 in 0.07 in - ()
Sea Level Pressure  
Sea Level Pressure 29.74 in    
Wind  
Wind Speed 25 mph ()    
Max Wind Speed 34 mph    
Max Gust Speed 46 mph    
Visibility 0.0 miles    
Events Fog , Snow    
Averages and records for this station are not official NWS values.
T = Trace of Precipitation, MM = Missing Value Source: Averaged Metar Reports

Daily Weather History Graph

Daily Weather History Graph

Search for Another Location

Airport or City:

Trip Planner

Search our weather history database for the weather conditions in past years. The results will help you decide how hot, cold, wet, or windy it might be!

Date:

Astronomy

Apr. 12, 2013 Rise Set
Actual Time 6:34 AM CEST 7:59 PM CEST
Civil Twilight 6:03 AM CEST 8:30 PM CEST
Nautical Twilight 5:26 AM CEST 9:08 PM CEST
Astronomical Twilight 4:46 AM CEST 9:48 PM CEST
Moon 7:27 AM CEST (4/12) 10:22 PM CEST (4/12)
Length of Visible Light 14h 26m
Length of Day
13h 24m
Waxing Crescent, 4% of the Moon is Illuminated
Apr 12
Waxing Crescent
Apr 18
First Quarter
Apr 25
Full
May 2
Last Quarter
May 10
New

Hourly Weather History & Observations

Time (CEST) Temp. Windchill Dew Point Humidity Pressure Visibility Wind Dir Wind Speed Gust Speed Precip Events Conditions
1:55 AM 30.2 °F 14.5 °F 30.2 °F 100% 29.77 in - SSW 33.4 mph - N/A Fog Light Freezing Fog
2:00 AM 30 °F - 30 °F 100%  in 0 mi SSW 33.4 mph - - Snow Light Snow
2:55 AM 30.2 °F 14.3 °F 30.2 °F 100% 29.71 in 0.0 mi SSW 34.5 mph 46.0 mph N/A Fog Light Freezing Fog
3:55 AM 30.2 °F 15.4 °F 30.2 °F 100% 29.71 in 0.0 mi SSW 28.8 mph 44.9 mph N/A Fog Light Freezing Fog
4:55 AM 30.2 °F 15.2 °F 30.2 °F 100% 29.71 in - SSW 29.9 mph 43.7 mph N/A Fog Light Freezing Fog
5:00 AM 30 °F - 30 °F 100%  in 0 mi SSW 29.9 mph - - Snow Light Snow
5:55 AM 30.2 °F 15.4 °F 30.2 °F 100% 29.71 in - SSW 28.8 mph - N/A Fog Light Freezing Fog
6:55 AM 30.2 °F 15.4 °F 30.2 °F 100% 29.71 in - SSW 28.8 mph 40.3 mph N/A Fog Light Freezing Fog
7:55 AM 30.2 °F 15.2 °F 30.2 °F 100% 29.71 in - SSW 29.9 mph 41.4 mph N/A Fog Light Freezing Fog
8:00 AM 30 °F - 30 °F 100%  in 0 mi SSW 29.9 mph - - Snow Light Snow
8:55 AM 30.2 °F 15.2 °F 30.2 °F 100% 29.71 in - SSW 29.9 mph 41.4 mph N/A Fog Light Freezing Fog
9:55 AM 30.2 °F 15.7 °F 30.2 °F 100% 29.71 in - SSW 27.6 mph 39.1 mph N/A Fog Light Freezing Fog
10:55 AM 30.2 °F 14.9 °F 30.2 °F 100% 29.71 in - SSW 31.1 mph 42.6 mph N/A Fog Light Freezing Fog
11:00 AM 31 °F - 30 °F 94%  in 0 mi SSW 31.1 mph - - Snow Light Snow
11:55 AM 30.2 °F 14.7 °F 30.2 °F 100% 29.71 in - SSW 32.2 mph 43.7 mph N/A Fog Light Freezing Fog
12:55 PM 30.2 °F 15.9 °F 30.2 °F 100% 29.71 in 0.0 mi SSW 26.5 mph - N/A Fog Light Freezing Fog
1:55 PM 32.0 °F 18.9 °F 30.2 °F 93% 29.74 in 0.0 mi SW 24.2 mph - N/A Fog Light Freezing Fog
2:00 PM 31 °F - 31 °F 100%  in 0 mi SW 24.2 mph - - Fog Heavy Fog
2:55 PM 32.0 °F 19.5 °F 32.0 °F 100% 29.74 in 0.0 mi SW 21.9 mph - N/A Fog Light Freezing Fog
3:55 PM 32.0 °F 19.2 °F 32.0 °F 100% 29.74 in 0.1 mi SW 23.0 mph - N/A Fog Light Freezing Fog
4:55 PM 32.0 °F 19.5 °F 32.0 °F 100% 29.77 in 0.1 mi SSW 21.9 mph - N/A Fog Light Freezing Fog
5:00 PM 32 °F - 31 °F 97%  in 0 mi SSW 21.9 mph - - Fog Heavy Fog
5:55 PM 32.0 °F 18.1 °F 30.2 °F 93% 29.74 in 0.1 mi SSW 27.6 mph 41.4 mph N/A Fog Light Freezing Fog
6:55 PM 32.0 °F 18.6 °F 30.2 °F 93% 29.74 in 0.1 mi SSW 25.3 mph 38.0 mph N/A Fog Light Freezing Fog
7:55 PM 30.2 °F 15.7 °F 30.2 °F 100% 29.77 in 0.1 mi SW 27.6 mph 39.1 mph N/A Fog Light Freezing Fog
8:00 PM 31 °F - 30 °F 96%  in 0 mi SW 27.6 mph - - Fog Heavy Fog
8:55 PM 30.2 °F 16.2 °F 30.2 °F 100% 29.77 in 0.0 mi SW 25.3 mph - N/A Fog Light Freezing Fog
9:55 PM 30.2 °F 18.5 °F 30.2 °F 100% 29.80 in 0.0 mi SW 17.3 mph - N/A Fog Light Freezing Fog
10:55 PM 30.2 °F 21.3 °F 30.2 °F 100% 29.83 in 0.1 mi SW 10.4 mph - N/A Fog Light Freezing Fog
11:00 PM 30 °F - 30 °F 98%  in 0 mi SW 10.4 mph - - Fog Heavy Fog
11:55 PM 30.2 °F 18.9 °F 30.2 °F 100% 29.86 in 0.0 mi SSW 16.1 mph - N/A Fog Light Freezing Fog